Location: Chiroubles
(46.1812°N, 4.6660°E)
Time: 17:07:04
(UTC+00:00)

OBJECT-B - Pass Details

Date: 15 August 2020
Orbit: 422 x 433 km, 97.0° (Epoch: 21 September)

Event Time Altitude Azimuth Distance (km) Brightness Sun altitude
Exits shadow 19:30:04 - 153° (SSE) 1,919 3.6 -7.2°
Reaches altitude 10° 19:30:59 10° 150° (SSE) 1,532 3.1 -7.3°
Maximum altitude 19:34:11 50° 74° (ENE) 556 1.1 -7.8°
Drops below altitude 10° 19:37:23 10° 358° (N) 1,539 4.1 -8.3°
Sets 19:39:25 0° 353° (N) 2,409 5.2 -8.6°
